This is the latest recevied weather packets stored in our database for station/object N6DZK. If no packets are shown the sender has not sent any weather packets the latest 10 day(s).
| Time | Temp. | Humidity | Pressure | Rain* | Wind** | Luminosity | Snow |
|---|---|---|---|---|---|---|---|
| 1777241852 | 16.11° C | 63% | 1013.8 hPa | 0 mm | - | 216 W/m² | - |
| 1777241550 | 16.67° C | 66% | 1013.8 hPa | 0 mm | - | 343 W/m² | - |
| 1777241247 | 16.11° C | 66% | 1013.8 hPa | 0 mm | - | 402 W/m² | - |
| 1777240944 | 16.11° C | 66% | 1014 hPa | 0 mm | - | 333 W/m² | - |
| 1777240642 | 16.11° C | 66% | 1013.7 hPa | 0 mm | - | 304 W/m² | - |
| 1777240340 | 16.11° C | 66% | 1013.9 hPa | 0 mm | - | 291 W/m² | - |
| 1777240037 | 15.56° C | 69% | 1013.9 hPa | 0 mm | - | 261 W/m² | - |
| 1777239735 | 15.56° C | 69% | 1014 hPa | 0 mm | - | 203 W/m² | - |
| 1777239431 | 15.56° C | 68% | 1013.8 hPa | 0 mm | - | 135 W/m² | - |
| 1777239128 | 15.56° C | 66% | 1014 hPa | 0 mm | - | 143 W/m² | - |
| 1777238825 | 16.11° C | 67% | 1014 hPa | 0 mm | - | 232 W/m² | - |
| 1777238522 | 16.11° C | 65% | 1014.1 hPa | 0 mm | - | 343 W/m² | - |
| 1777238218 | 16.11° C | 64% | 1014 hPa | 0 mm | - | 317 W/m² | - |
| 1777237916 | 16.11° C | 62% | 1014 hPa | 0 mm | - | 207 W/m² | - |
| 1777237611 | 16.67° C | 60% | 1014.2 hPa | 0 mm | - | 366 W/m² | - |
| 1777237309 | 15.56° C | 62% | 1014.3 hPa | 0 mm | - | 671 W/m² | - |
| 1777237006 | 15.56° C | 62% | 1014.2 hPa | 0 mm | - | 313 W/m² | - |
| 1777236704 | 15.56° C | 62% | 1014.3 hPa | 0 mm | - | 149 W/m² | - |
| 1777236403 | 15.56° C | 64% | 1014.1 hPa | 0 mm | - | 151 W/m² | - |
| 1777236100 | 15° C | 64% | 1014.2 hPa | 0 mm | - | 219 W/m² | - |
| 1777235796 | 15° C | 64% | 1014.2 hPa | 0 mm | - | 141 W/m² | - |
| 1777235493 | 16.11° C | 62% | 1014.2 hPa | 0 mm | - | 155 W/m² | - |
| 1777235189 | 16.11° C | 61% | 1014.2 hPa | 0 mm | - | 223 W/m² | - |
| 1777234885 | 16.11° C | 64% | 1014.2 hPa | 0 mm | - | 364 W/m² | - |
| 1777234581 | 15.56° C | 62% | 1014.1 hPa | 0 mm | - | 521 W/m² | - |
* Rain latest hour (hover to see other rain measurements)
** Current wind speed in m/s (hover to see current wind gust speed)